This is the latest recevied weather packets stored in our database for station/object RN1M-13. If no packets are shown the sender has not sent any weather packets the latest 10 day(s).
| Time | Temp. | Humidity | Pressure | Rain* | Wind** | Luminosity | Snow |
|---|---|---|---|---|---|---|---|
| 1778065089 | 10° C | 67% | 1012.4 hPa | - | - | - | - |
| 1778064196 | 10° C | 74% | 1012.3 hPa | - | - | - | - |
| 1778063296 | 10° C | 75% | 1012.1 hPa | - | - | - | - |
| 1778062396 | 10° C | 79% | 1011.9 hPa | - | - | - | - |
| 1778061495 | 9.44° C | 82% | 1011.7 hPa | - | - | - | - |
| 1778060595 | 10° C | 82% | 1011.5 hPa | - | - | - | - |
| 1778059696 | 9.44° C | 81% | 1011.4 hPa | - | - | - | - |
| 1778058795 | 10° C | 80% | 1011.1 hPa | - | - | - | - |
| 1778057895 | 9.44° C | 92% | 1010.8 hPa | - | - | - | - |
| 1778056995 | 10° C | 100% | 1010.6 hPa | - | - | - | - |
| 1778056095 | 9.44° C | 100% | 1010.4 hPa | - | - | - | - |
| 1778054297 | 10° C | 100% | 1010 hPa | - | - | - | - |
| 1778053403 | 9.44° C | 100% | 1009.8 hPa | - | - | - | - |
| 1778052503 | 9.44° C | 100% | 1009.5 hPa | - | - | - | - |
| 1778051603 | 9.44° C | 100% | 1009.4 hPa | - | - | - | - |
| 1778050703 | 8.89° C | 100% | 1009.1 hPa | - | - | - | - |
| 1778049803 | 7.78° C | 100% | 1008.9 hPa | - | - | - | - |
| 1778048902 | 8.33° C | 100% | 1008.7 hPa | - | - | - | - |
| 1778048002 | 8.89° C | 100% | 1008.7 hPa | - | - | - | - |
| 1778047103 | 7.78° C | 100% | 1008.4 hPa | - | - | - | - |
| 1778046203 | 7.78° C | 100% | 1008.1 hPa | - | - | - | - |
| 1778045302 | 7.22° C | 100% | 1007.9 hPa | - | - | - | - |
| 1778044402 | 8.33° C | 100% | 1007.5 hPa | - | - | - | - |
| 1778043504 | 7.78° C | 100% | 1007.3 hPa | - | - | - | - |
| 1778042608 | 7.22° C | 100% | 1007 hPa | - | - | - | - |
* Rain since midnight (hover to see other rain measurements)
** Current wind speed in m/s (hover to see current wind gust speed)